Indiana, PA

6:37 AM EST on December 13, 2019 (GMT -0500)
Indiana County-Stewart

Weather History for KIDI - August, 2019

Change the Weather History Date:

Sunday, August 25, 2019

  Actual Average Record
Temperature  
Mean Temperature 62 °F -  
Max Temperature 73 °F 80 °F 91 °F (1948)
Min Temperature 50 °F 56 °F 40 °F (1952)
Degree Days  
Heating Degree Days 4    
Growing Degree Days 12 (Base 50)    
Moisture  
Dew Point 51 °F    
Average Humidity 71    
Maximum Humidity 100    
Minimum Humidity 43    
Precipitation  
Precipitation 0.00 in - - ()
Sea Level Pressure  
Sea Level Pressure 30.27 in    
Wind  
Wind Speed 5 mph ()    
Max Wind Speed 13 mph    
Max Gust Speed 20 mph    
Visibility 10.0 miles    
Events      
Averages and records for this station are not official NWS values.
T = Trace of Precipitation, MM = Missing Value Source: Averaged Metar Reports

Daily Weather History Graph

Daily Weather History Graph

Search for Another Location

Airport or City:

Astronomy

Aug. 25, 2019 Rise Set
Actual Time 6:36 AM EDT 7:59 PM EDT
Civil Twilight 6:07 AM EDT 8:28 PM EDT
Nautical Twilight 5:33 AM EDT 9:02 PM EDT
Astronomical Twilight 4:57 AM EDT 9:38 PM EDT
Moon 1:09 AM EDT (8/25) 4:19 PM EDT (8/25)
Length of Visible Light 14h 20m
Length of Day
13h 23m
Waning Crescent, 29% of the Moon is Illuminated
Aug 25
Waning Crescent
Aug 30
New
Sep 5
First Quarter
Sep 14
Full
Sep 21
Last Quarter

Hourly Weather History & Observations

Time (EDT) Temp. Dew Point Humidity Pressure Visibility Wind Dir Wind Speed Gust Speed Precip Events Conditions
12:15 AM 55.4 °F 51.8 °F 88% 30.31 in 10.0 mi East 6.9 mph - N/A   Clear
12:35 AM 55.4 °F 51.8 °F 88% 30.30 in 10.0 mi ESE 3.5 mph - N/A   Clear
12:55 AM 53.6 °F 50.0 °F 88% 30.30 in 10.0 mi East 3.5 mph - N/A   Clear
1:15 AM 55.4 °F 50.0 °F 82% 30.30 in 10.0 mi East 4.6 mph - N/A   Clear
1:35 AM 55.4 °F 50.0 °F 82% 30.30 in 10.0 mi East 5.8 mph - N/A   Clear
1:55 AM 55.4 °F 50.0 °F 82% 30.29 in 10.0 mi East 5.8 mph - N/A   Clear
2:15 AM 53.6 °F 50.0 °F 88% 30.29 in 10.0 mi East 5.8 mph - N/A   Clear
2:35 AM 53.6 °F 50.0 °F 88% 30.29 in 10.0 mi East 4.6 mph - N/A   Clear
2:55 AM 53.6 °F 50.0 °F 88% 30.29 in 10.0 mi Calm Calm - N/A   Clear
3:15 AM 53.6 °F 50.0 °F 88% 30.29 in 10.0 mi Calm Calm - N/A   Clear
3:35 AM 51.8 °F 50.0 °F 94% 30.29 in 10.0 mi Calm Calm - N/A   Clear
3:55 AM 50.0 °F 48.2 °F 94% 30.28 in 10.0 mi Calm Calm - N/A   Clear
4:15 AM 51.8 °F 50.0 °F 94% 30.28 in 10.0 mi Calm Calm - N/A   Clear
4:35 AM 51.8 °F 50.0 °F 94% 30.27 in 10.0 mi Calm Calm - N/A   Clear
4:55 AM 51.8 °F 50.0 °F 94% 30.27 in 10.0 mi Calm Calm - N/A   Clear
5:15 AM 51.8 °F 50.0 °F 94% 30.28 in 10.0 mi Calm Calm - N/A   Clear
5:35 AM 50.0 °F 50.0 °F 100% 30.28 in 10.0 mi Calm Calm - N/A   Clear
5:55 AM 51.8 °F 50.0 °F 94% 30.29 in 10.0 mi SE 4.6 mph - N/A   Clear
6:15 AM 51.8 °F 50.0 °F 94% 30.29 in 10.0 mi Calm Calm - N/A   Clear
6:35 AM 50.0 °F 50.0 °F 100% 30.30 in 10.0 mi Calm Calm - N/A   Clear
6:55 AM 50.0 °F 50.0 °F 100% 30.30 in 10.0 mi Calm Calm - N/A   Clear
7:15 AM 51.8 °F 51.8 °F 100% 30.31 in 10.0 mi Calm Calm - N/A   Clear
7:35 AM 53.6 °F 51.8 °F 94% 30.31 in 10.0 mi Variable 3.5 mph - N/A   Clear
7:55 AM 55.4 °F 51.8 °F 88% 30.31 in 10.0 mi Calm Calm - N/A   Clear
8:15 AM 55.4 °F 51.8 °F 88% 30.31 in 10.0 mi Variable 4.6 mph 11.5 mph N/A   Clear
8:35 AM 57.2 °F 53.6 °F 88% 30.31 in 10.0 mi Variable 5.8 mph - N/A   Clear
8:55 AM 59.0 °F 53.6 °F 82% 30.31 in 10.0 mi ESE 6.9 mph - N/A   Clear
9:15 AM 60.8 °F 53.6 °F 77% 30.30 in 10.0 mi East 9.2 mph - N/A   Clear
9:35 AM 62.6 °F 53.6 °F 72% 30.30 in 10.0 mi East 6.9 mph - N/A   Clear
9:55 AM 64.4 °F 55.4 °F 73% 30.30 in 10.0 mi ESE 8.1 mph - N/A   Clear
10:15 AM 66.2 °F 53.6 °F 64% 30.30 in 10.0 mi ESE 9.2 mph - N/A   Clear
10:35 AM 68.0 °F 53.6 °F 60% 30.30 in 10.0 mi East 6.9 mph 13.8 mph N/A   Clear
10:55 AM 69.8 °F 50.0 °F 49% 30.30 in 10.0 mi SE 10.4 mph - N/A   Partly Cloudy
11:15 AM 69.8 °F 48.2 °F 46% 30.30 in 10.0 mi ESE 10.4 mph - N/A   Scattered Clouds
11:35 AM 69.8 °F 48.2 °F 46% 30.30 in 10.0 mi ESE 12.7 mph - N/A   Mostly Cloudy
11:55 AM 69.8 °F 48.2 °F 46% 30.30 in 10.0 mi SE 11.5 mph - N/A   Mostly Cloudy
12:15 PM 69.8 °F 48.2 °F 46% 30.29 in 10.0 mi ESE 12.7 mph - N/A   Mostly Cloudy
12:35 PM 69.8 °F 46.4 °F 43% 30.29 in 10.0 mi SE 8.1 mph 19.6 mph N/A   Scattered Clouds
12:55 PM 71.6 °F 48.2 °F 43% 30.29 in 10.0 mi SE 11.5 mph 18.4 mph N/A   Partly Cloudy
1:15 PM 71.6 °F 48.2 °F 43% 30.28 in 10.0 mi ESE 11.5 mph 17.3 mph N/A   Partly Cloudy
1:35 PM 71.6 °F 50.0 °F 46% 30.28 in 10.0 mi SE 11.5 mph 17.3 mph N/A   Partly Cloudy
1:55 PM 71.6 °F 48.2 °F 43% 30.28 in 10.0 mi ESE 11.5 mph 17.3 mph N/A   Scattered Clouds
2:15 PM 69.8 °F 48.2 °F 46% 30.27 in 10.0 mi ESE 9.2 mph 17.3 mph N/A   Mostly Cloudy
2:35 PM 71.6 °F 48.2 °F 43% 30.26 in 10.0 mi SSE 9.2 mph 19.6 mph N/A   Mostly Cloudy
2:55 PM 69.8 °F 50.0 °F 49% 30.26 in 10.0 mi ESE 11.5 mph - N/A   Mostly Cloudy
3:15 PM 71.6 °F 50.0 °F 46% 30.26 in 10.0 mi ESE 11.5 mph - N/A   Mostly Cloudy
3:35 PM 71.6 °F 50.0 °F 46% 30.26 in 10.0 mi ESE 11.5 mph - N/A   Mostly Cloudy
3:55 PM 73.4 °F 50.0 °F 44% 30.25 in 10.0 mi ESE 12.7 mph - N/A   Overcast
4:15 PM 71.6 °F 50.0 °F 46% 30.25 in 10.0 mi SSE 8.1 mph - N/A   Mostly Cloudy
4:35 PM 71.6 °F 50.0 °F 46% 30.26 in 10.0 mi SE 10.4 mph - N/A   Mostly Cloudy
4:55 PM 71.6 °F 50.0 °F 46% 30.25 in 10.0 mi SE 6.9 mph 13.8 mph N/A   Overcast
5:15 PM 71.6 °F 51.8 °F 50% 30.25 in 10.0 mi ESE 4.6 mph - N/A   Overcast
5:35 PM 71.6 °F 51.8 °F 50% 30.25 in 10.0 mi Variable 3.5 mph - N/A   Mostly Cloudy
5:55 PM 71.6 °F 51.8 °F 50% 30.24 in 10.0 mi SE 10.4 mph - N/A   Mostly Cloudy
6:15 PM 69.8 °F 51.8 °F 53% 30.24 in 10.0 mi SE 6.9 mph - N/A   Mostly Cloudy
6:35 PM 69.8 °F 53.6 °F 56% 30.24 in 10.0 mi SE 5.8 mph - N/A   Scattered Clouds
6:55 PM 71.6 °F 53.6 °F 53% 30.23 in 10.0 mi Calm Calm - N/A   Scattered Clouds
7:15 PM 69.8 °F 53.6 °F 56% 30.23 in 10.0 mi ESE 8.1 mph - N/A   Mostly Cloudy
7:35 PM 68.0 °F 53.6 °F 60% 30.23 in 10.0 mi ESE 5.8 mph - N/A   Partly Cloudy
7:55 PM 66.2 °F 53.6 °F 64% 30.23 in 10.0 mi East 4.6 mph - N/A   Clear
8:15 PM 64.4 °F 55.4 °F 73% 30.22 in 10.0 mi Calm Calm - N/A   Clear
8:35 PM 62.6 °F 55.4 °F 77% 30.23 in 10.0 mi Calm Calm - N/A   Clear
8:55 PM 60.8 °F 55.4 °F 82% 30.24 in 10.0 mi Calm Calm - N/A   Clear
9:15 PM 60.8 °F 55.4 °F 82% 30.24 in 10.0 mi Calm Calm - N/A   Clear
9:35 PM 60.8 °F 55.4 °F 82% 30.23 in 10.0 mi East 4.6 mph - N/A   Clear
9:55 PM 59.0 °F 55.4 °F 88% 30.23 in 10.0 mi Calm Calm - N/A   Clear
10:15 PM 59.0 °F 55.4 °F 88% 30.23 in 10.0 mi Calm Calm - N/A   Clear
10:35 PM 57.2 °F 55.4 °F 94% 30.24 in 10.0 mi Calm Calm - N/A   Clear
10:55 PM 59.0 °F 55.4 °F 88% 30.24 in 10.0 mi East 4.6 mph - N/A   Clear
11:15 PM 60.8 °F 53.6 °F 77% 30.24 in 10.0 mi ESE 4.6 mph - N/A   Clear
11:55 PM 59.0 °F 53.6 °F 82% 30.24 in 10.0 mi ESE 4.6 mph - N/A   Clear